Wolke Sonne

Wetter Roßtal

Gehe zu: Ammerndorf

Tageswerte vom Donnerstag, 01.12.2022

Optionen

Tag:
Erweitert:

Alle Werte vom Donnerstag, 01.12.2022

Einen Moment bitte, die Daten werden aufbereitet...

UhrzeitTemperaturFeuchteLuftdruckNiederschlagEvapotranspirationNiederschlag?WindWindböenRegenrateWindrichtungHelligkeitSolarstrahlungUV-IndexSonne?Feinstaub 10µmFeinstaub 2,5µmUhrzeit
Diagramm IconDiagramm IconDiagramm IconDiagramm IconDiagramm IconDiagramm IconDiagramm IconDiagramm IconDiagramm IconDiagramm IconDiagramm IconDiagramm IconDiagramm IconDiagramm IconDiagramm IconDiagramm Icon
00:001,1 °C 89 % - 0,0 mm 0,0 mm nein 3,2 km/h 6,4 km/h 0,0 mm/h O 0,000 klux 0,0 W/qm 0,0 nein 9,39 µg/m³ 6,54 µg/m³ 00:00
00:051,1 °C 89 % - 0,0 mm 0,0 mm nein 3,2 km/h 8,0 km/h 0,0 mm/h ONO 0,000 klux 0,0 W/qm 0,0 nein 9,01 µg/m³ 6,40 µg/m³ 00:05
00:101,1 °C 89 % - 0,0 mm 0,0 mm nein 3,2 km/h 6,4 km/h 0,0 mm/h O 0,000 klux 0,0 W/qm 0,0 nein 8,68 µg/m³ 6,39 µg/m³ 00:10
00:151,1 °C 89 % - 0,0 mm 0,0 mm nein 1,6 km/h 4,8 km/h 0,0 mm/h O 0,000 klux 0,0 W/qm 0,0 nein 10,15 µg/m³ 6,89 µg/m³ 00:15
00:201,1 °C 89 % - 0,0 mm 0,0 mm nein 1,6 km/h 4,8 km/h 0,0 mm/h O 0,000 klux 0,0 W/qm 0,0 nein 10,13 µg/m³ 6,72 µg/m³ 00:20
00:251,1 °C 89 % - 0,0 mm 0,0 mm nein 1,6 km/h 4,8 km/h 0,0 mm/h O 0,000 klux 0,0 W/qm 0,0 nein 10,12 µg/m³ 6,54 µg/m³ 00:25
00:301,1 °C 90 % - 0,0 mm 0,0 mm nein 1,6 km/h 4,8 km/h 0,0 mm/h O 0,000 klux 0,0 W/qm 0,0 nein 9,13 µg/m³ 5,98 µg/m³ 00:30
00:351,1 °C 90 % - 0,0 mm 0,0 mm nein 0,0 km/h 3,2 km/h 0,0 mm/h O 0,000 klux 0,0 W/qm 0,0 nein 8,92 µg/m³ 6,09 µg/m³ 00:35
00:401,1 °C 90 % - 0,0 mm 0,0 mm nein 1,6 km/h 4,8 km/h 0,0 mm/h O 0,000 klux 0,0 W/qm 0,0 nein 8,94 µg/m³ 6,11 µg/m³ 00:40
00:451,1 °C 90 % - 0,0 mm 0,0 mm nein 0,0 km/h 3,2 km/h 0,0 mm/h O 0,000 klux 0,0 W/qm 0,0 nein 9,23 µg/m³ 6,22 µg/m³ 00:45
00:501,1 °C 90 % - 0,0 mm 0,0 mm nein 0,0 km/h 3,2 km/h 0,0 mm/h O 0,000 klux 0,0 W/qm 0,0 nein 8,96 µg/m³ 6,32 µg/m³ 00:50
00:551,1 °C 90 % - 0,0 mm 0,0 mm nein 0,0 km/h 3,2 km/h 0,0 mm/h O 0,000 klux 0,0 W/qm 0,0 nein 9,31 µg/m³ 6,01 µg/m³ 00:55
01:001,1 °C 90 % - 0,0 mm 0,0 mm nein 0,0 km/h 3,2 km/h 0,0 mm/h O 0,000 klux 0,0 W/qm 0,0 nein 9,78 µg/m³ 6,31 µg/m³ 01:00
01:051,1 °C 90 % - 0,0 mm 0,0 mm nein 0,0 km/h 3,2 km/h 0,0 mm/h O 0,000 klux 0,0 W/qm 0,0 nein 9,49 µg/m³ 6,31 µg/m³ 01:05
01:101,1 °C 90 % - 0,0 mm 0,0 mm nein 1,6 km/h 3,2 km/h 0,0 mm/h O 0,000 klux 0,0 W/qm 0,0 nein 9,50 µg/m³ 6,46 µg/m³ 01:10
01:151,1 °C 90 % - 0,0 mm 0,0 mm nein 1,6 km/h 4,8 km/h 0,0 mm/h O 0,000 klux 0,0 W/qm 0,0 nein 8,21 µg/m³ 6,07 µg/m³ 01:15
01:201,1 °C 90 % - 0,0 mm 0,0 mm nein 1,6 km/h 6,4 km/h 0,0 mm/h O 0,000 klux 0,0 W/qm 0,0 nein 9,32 µg/m³ 6,08 µg/m³ 01:20
01:251,1 °C 90 % - 0,0 mm 0,0 mm nein 1,6 km/h 4,8 km/h 0,0 mm/h O 0,000 klux 0,0 W/qm 0,0 nein 9,02 µg/m³ 6,15 µg/m³ 01:25
01:301,1 °C 90 % - 0,0 mm 0,0 mm nein 1,6 km/h 3,2 km/h 0,0 mm/h O 0,000 klux 0,0 W/qm 0,0 nein 8,96 µg/m³ 6,32 µg/m³ 01:30
01:351,1 °C 90 % - 0,0 mm 0,0 mm nein 0,0 km/h 3,2 km/h 0,0 mm/h O 0,000 klux 0,0 W/qm 0,0 nein 9,91 µg/m³ 7,12 µg/m³ 01:35
01:401,1 °C 91 % - 0,0 mm 0,0 mm nein 0,0 km/h 0,0 km/h 0,0 mm/h N 0,000 klux 0,0 W/qm 0,0 nein 8,45 µg/m³ 5,45 µg/m³ 01:40
01:451,1 °C 91 % - 0,0 mm 0,0 mm nein 0,0 km/h 3,2 km/h 0,0 mm/h O 0,000 klux 0,0 W/qm 0,0 nein 8,12 µg/m³ 5,55 µg/m³ 01:45
01:501,1 °C 91 % - 0,0 mm 0,0 mm nein 0,0 km/h 1,6 km/h 0,0 mm/h O 0,000 klux 0,0 W/qm 0,0 nein 7,58 µg/m³ 5,14 µg/m³ 01:50
01:551,1 °C 91 % - 0,0 mm 0,0 mm nein 0,0 km/h 1,6 km/h 0,0 mm/h O 0,000 klux 0,0 W/qm 0,0 nein 7,94 µg/m³ 5,32 µg/m³ 01:55
UhrzeitTemperaturFeuchteLuftdruckNiederschlagEvapotranspirationNiederschlag?WindWindböenRegenrateWindrichtungHelligkeitSolarstrahlungUV-IndexSonne?Feinstaub 10µmFeinstaub 2,5µmUhrzeit
02:001,1 °C 91 % - 0,0 mm 0,0 mm nein 0,0 km/h 3,2 km/h 0,0 mm/h O 0,000 klux 0,0 W/qm 0,0 nein 7,92 µg/m³ 5,61 µg/m³ 02:00
02:051,1 °C 91 % - 0,0 mm 0,0 mm nein 1,6 km/h 3,2 km/h 0,0 mm/h O 0,000 klux 0,0 W/qm 0,0 nein 7,42 µg/m³ 5,12 µg/m³ 02:05
02:101,1 °C 91 % - 0,0 mm 0,0 mm nein 0,0 km/h 1,6 km/h 0,0 mm/h O 0,000 klux 0,0 W/qm 0,0 nein 6,40 µg/m³ 4,43 µg/m³ 02:10
02:151,1 °C 90 % - 0,0 mm 0,0 mm nein 1,6 km/h 4,8 km/h 0,0 mm/h O 0,000 klux 0,0 W/qm 0,0 nein 7,79 µg/m³ 6,05 µg/m³ 02:15
02:201,1 °C 91 % - 0,0 mm 0,0 mm nein 1,6 km/h 6,4 km/h 0,0 mm/h O 0,000 klux 0,0 W/qm 0,0 nein 11,85 µg/m³ 8,23 µg/m³ 02:20
02:251,1 °C 90 % - 0,0 mm 0,0 mm nein 1,6 km/h 4,8 km/h 0,0 mm/h O 0,000 klux 0,0 W/qm 0,0 nein 9,97 µg/m³ 6,74 µg/m³ 02:25
02:301,1 °C 91 % - 0,0 mm 0,0 mm nein 1,6 km/h 6,4 km/h 0,0 mm/h O 0,000 klux 0,0 W/qm 0,0 nein 8,73 µg/m³ 5,92 µg/m³ 02:30
02:351,1 °C 91 % - 0,0 mm 0,0 mm nein 1,6 km/h 4,8 km/h 0,0 mm/h O 0,000 klux 0,0 W/qm 0,0 nein 8,08 µg/m³ 5,12 µg/m³ 02:35
02:401,1 °C 91 % - 0,0 mm 0,0 mm nein 1,6 km/h 4,8 km/h 0,0 mm/h O 0,000 klux 0,0 W/qm 0,0 nein 7,19 µg/m³ 4,98 µg/m³ 02:40
02:451,1 °C 91 % - 0,0 mm 0,0 mm nein 1,6 km/h 4,8 km/h 0,0 mm/h O 0,000 klux 0,0 W/qm 0,0 nein 6,98 µg/m³ 4,72 µg/m³ 02:45
02:501,1 °C 91 % - 0,0 mm 0,0 mm nein 1,6 km/h 4,8 km/h 0,0 mm/h ONO 0,000 klux 0,0 W/qm 0,0 nein 7,52 µg/m³ 4,91 µg/m³ 02:50
02:551,1 °C 91 % - 0,0 mm 0,0 mm nein 1,6 km/h 6,4 km/h 0,0 mm/h ONO 0,000 klux 0,0 W/qm 0,0 nein 6,90 µg/m³ 4,58 µg/m³ 02:55
03:001,7 °C 91 % - 0,0 mm 0,0 mm nein 1,6 km/h 6,4 km/h 0,0 mm/h ONO 0,000 klux 0,0 W/qm 0,0 nein 8,44 µg/m³ 5,33 µg/m³ 03:00
03:051,7 °C 91 % - 0,0 mm 0,0 mm nein 1,6 km/h 4,8 km/h 0,0 mm/h ONO 0,000 klux 0,0 W/qm 0,0 nein 6,71 µg/m³ 4,51 µg/m³ 03:05
03:101,7 °C 91 % - 0,0 mm 0,0 mm nein 1,6 km/h 4,8 km/h 0,0 mm/h ONO 0,000 klux 0,0 W/qm 0,0 nein 7,48 µg/m³ 4,92 µg/m³ 03:10
03:151,7 °C 91 % - 0,0 mm 0,0 mm nein 1,6 km/h 3,2 km/h 0,0 mm/h ONO 0,000 klux 0,0 W/qm 0,0 nein 8,51 µg/m³ 5,37 µg/m³ 03:15
03:201,7 °C 91 % - 0,0 mm 0,0 mm nein 3,2 km/h 4,8 km/h 0,0 mm/h ONO 0,000 klux 0,0 W/qm 0,0 nein 10,10 µg/m³ 5,30 µg/m³ 03:20
03:251,7 °C 91 % - 0,0 mm 0,0 mm nein 1,6 km/h 4,8 km/h 0,0 mm/h ONO 0,000 klux 0,0 W/qm 0,0 nein 7,46 µg/m³ 5,08 µg/m³ 03:25
03:301,7 °C 91 % - 0,0 mm 0,0 mm nein 1,6 km/h 3,2 km/h 0,0 mm/h ONO 0,000 klux 0,0 W/qm 0,0 nein 8,35 µg/m³ 5,58 µg/m³ 03:30
03:351,7 °C 91 % - 0,0 mm 0,0 mm nein 1,6 km/h 4,8 km/h 0,0 mm/h ONO 0,000 klux 0,0 W/qm 0,0 nein 8,23 µg/m³ 5,00 µg/m³ 03:35
03:401,7 °C 91 % - 0,0 mm 0,0 mm nein 1,6 km/h 4,8 km/h 0,0 mm/h ONO 0,000 klux 0,0 W/qm 0,0 nein 7,18 µg/m³ 4,98 µg/m³ 03:40
03:451,7 °C 91 % - 0,0 mm 0,0 mm nein 1,6 km/h 4,8 km/h 0,0 mm/h ONO 0,000 klux 0,0 W/qm 0,0 nein 6,92 µg/m³ 5,08 µg/m³ 03:45
03:501,7 °C 91 % - 0,0 mm 0,0 mm nein 1,6 km/h 6,4 km/h 0,0 mm/h ONO 0,000 klux 0,0 W/qm 0,0 nein 7,29 µg/m³ 4,93 µg/m³ 03:50
03:551,7 °C 91 % - 0,0 mm 0,0 mm nein 1,6 km/h 3,2 km/h 0,0 mm/h ONO 0,000 klux 0,0 W/qm 0,0 nein 7,24 µg/m³ 4,86 µg/m³ 03:55
UhrzeitTemperaturFeuchteLuftdruckNiederschlagEvapotranspirationNiederschlag?WindWindböenRegenrateWindrichtungHelligkeitSolarstrahlungUV-IndexSonne?Feinstaub 10µmFeinstaub 2,5µmUhrzeit
04:001,7 °C 91 % - 0,0 mm 0,0 mm nein 1,6 km/h 4,8 km/h 0,0 mm/h ONO 0,000 klux 0,0 W/qm 0,0 nein 6,61 µg/m³ 4,64 µg/m³ 04:00
04:051,7 °C 91 % - 0,0 mm 0,0 mm nein 1,6 km/h 4,8 km/h 0,0 mm/h ONO 0,000 klux 0,0 W/qm 0,0 nein 6,74 µg/m³ 4,63 µg/m³ 04:05
04:101,7 °C 91 % - 0,0 mm 0,0 mm nein 0,0 km/h 3,2 km/h 0,0 mm/h ONO 0,000 klux 0,0 W/qm 0,0 nein 6,73 µg/m³ 4,61 µg/m³ 04:10
04:151,7 °C 91 % - 0,0 mm 0,0 mm nein 1,6 km/h 4,8 km/h 0,0 mm/h ONO 0,000 klux 0,0 W/qm 0,0 nein 6,41 µg/m³ 4,84 µg/m³ 04:15
04:201,7 °C 91 % - 0,0 mm 0,0 mm nein 1,6 km/h 4,8 km/h 0,0 mm/h ONO 0,000 klux 0,0 W/qm 0,0 nein 7,27 µg/m³ 5,23 µg/m³ 04:20
04:251,7 °C 91 % - 0,0 mm 0,0 mm nein 1,6 km/h 4,8 km/h 0,0 mm/h ONO 0,000 klux 0,0 W/qm 0,0 nein 7,42 µg/m³ 4,98 µg/m³ 04:25
04:301,7 °C 91 % - 0,0 mm 0,0 mm nein 1,6 km/h 6,4 km/h 0,0 mm/h ONO 0,000 klux 0,0 W/qm 0,0 nein 7,58 µg/m³ 5,09 µg/m³ 04:30
04:351,7 °C 91 % - 0,0 mm 0,0 mm nein 1,6 km/h 6,4 km/h 0,0 mm/h O 0,000 klux 0,0 W/qm 0,0 nein 8,23 µg/m³ 5,43 µg/m³ 04:35
04:401,7 °C 91 % - 0,0 mm 0,0 mm nein 1,6 km/h 4,8 km/h 0,0 mm/h O 0,000 klux 0,0 W/qm 0,0 nein 7,66 µg/m³ 5,25 µg/m³ 04:40
04:451,7 °C 91 % - 0,0 mm 0,0 mm nein 1,6 km/h 4,8 km/h 0,0 mm/h O 0,000 klux 0,0 W/qm 0,0 nein 7,15 µg/m³ 4,99 µg/m³ 04:45
04:501,7 °C 91 % - 0,0 mm 0,0 mm nein 3,2 km/h 6,4 km/h 0,0 mm/h O 0,000 klux 0,0 W/qm 0,0 nein 8,10 µg/m³ 5,35 µg/m³ 04:50
04:551,7 °C 91 % - 0,0 mm 0,0 mm nein 1,6 km/h 4,8 km/h 0,0 mm/h ONO 0,000 klux 0,0 W/qm 0,0 nein 7,15 µg/m³ 5,03 µg/m³ 04:55
05:001,7 °C 91 % - 0,0 mm 0,0 mm nein 1,6 km/h 4,8 km/h 0,0 mm/h ONO 0,000 klux 0,0 W/qm 0,0 nein 8,17 µg/m³ 5,35 µg/m³ 05:00
05:051,7 °C 91 % - 0,0 mm 0,0 mm nein 3,2 km/h 4,8 km/h 0,0 mm/h ONO 0,000 klux 0,0 W/qm 0,0 nein 8,72 µg/m³ 5,36 µg/m³ 05:05
05:101,7 °C 91 % - 0,0 mm 0,0 mm nein 1,6 km/h 4,8 km/h 0,0 mm/h ONO 0,000 klux 0,0 W/qm 0,0 nein 7,71 µg/m³ 5,10 µg/m³ 05:10
05:151,7 °C 91 % - 0,0 mm 0,0 mm nein 3,2 km/h 6,4 km/h 0,0 mm/h ONO 0,000 klux 0,0 W/qm 0,0 nein 8,38 µg/m³ 5,55 µg/m³ 05:15
05:201,7 °C 91 % - 0,0 mm 0,0 mm nein 1,6 km/h 4,8 km/h 0,0 mm/h ONO 0,000 klux 0,0 W/qm 0,0 nein 8,19 µg/m³ 5,41 µg/m³ 05:20
05:251,7 °C 92 % - 0,0 mm 0,0 mm nein 1,6 km/h 4,8 km/h 0,0 mm/h ONO 0,000 klux 0,0 W/qm 0,0 nein 7,55 µg/m³ 4,89 µg/m³ 05:25
05:301,7 °C 92 % - 0,0 mm 0,0 mm nein 1,6 km/h 4,8 km/h 0,0 mm/h ONO 0,000 klux 0,0 W/qm 0,0 nein 8,15 µg/m³ 5,38 µg/m³ 05:30
05:351,7 °C 92 % - 0,0 mm 0,0 mm nein 1,6 km/h 6,4 km/h 0,0 mm/h ONO 0,000 klux 0,0 W/qm 0,0 nein 7,21 µg/m³ 4,73 µg/m³ 05:35
05:401,7 °C 92 % - 0,0 mm 0,0 mm nein 3,2 km/h 6,4 km/h 0,0 mm/h O 0,000 klux 0,0 W/qm 0,0 nein 7,72 µg/m³ 5,24 µg/m³ 05:40
05:451,7 °C 92 % - 0,0 mm 0,0 mm nein 1,6 km/h 4,8 km/h 0,0 mm/h O 0,000 klux 0,0 W/qm 0,0 nein 8,45 µg/m³ 5,21 µg/m³ 05:45
05:501,7 °C 92 % - 0,0 mm 0,0 mm nein 3,2 km/h 6,4 km/h 0,0 mm/h ONO 0,000 klux 0,0 W/qm 0,0 nein 9,10 µg/m³ 6,28 µg/m³ 05:50
05:551,7 °C 92 % - 0,0 mm 0,0 mm nein 3,2 km/h 6,4 km/h 0,0 mm/h ONO 0,000 klux 0,0 W/qm 0,0 nein 7,23 µg/m³ 4,72 µg/m³ 05:55
UhrzeitTemperaturFeuchteLuftdruckNiederschlagEvapotranspirationNiederschlag?WindWindböenRegenrateWindrichtungHelligkeitSolarstrahlungUV-IndexSonne?Feinstaub 10µmFeinstaub 2,5µmUhrzeit
06:001,7 °C 92 % - 0,0 mm 0,0 mm nein 3,2 km/h 8,0 km/h 0,0 mm/h ONO 0,000 klux 0,0 W/qm 0,0 nein 8,17 µg/m³ 5,28 µg/m³ 06:00
06:051,7 °C 92 % - 0,0 mm 0,0 mm nein 1,6 km/h 8,0 km/h 0,0 mm/h ONO 0,000 klux 0,0 W/qm 0,0 nein 7,15 µg/m³ 4,99 µg/m³ 06:05
06:101,7 °C 92 % - 0,0 mm 0,0 mm nein 3,2 km/h 8,0 km/h 0,0 mm/h ONO 0,000 klux 0,0 W/qm 0,0 nein 7,63 µg/m³ 5,26 µg/m³ 06:10
06:151,7 °C 92 % - 0,0 mm 0,0 mm nein 1,6 km/h 4,8 km/h 0,0 mm/h ONO 0,000 klux 0,0 W/qm 0,0 nein 7,36 µg/m³ 4,55 µg/m³ 06:15
06:201,7 °C 92 % - 0,0 mm 0,0 mm nein 1,6 km/h 6,4 km/h 0,0 mm/h ONO 0,000 klux 0,0 W/qm 0,0 nein 7,99 µg/m³ 5,16 µg/m³ 06:20
06:251,7 °C 92 % - 0,0 mm 0,0 mm nein 1,6 km/h 6,4 km/h 0,0 mm/h ONO 0,000 klux 0,0 W/qm 0,0 nein 7,77 µg/m³ 4,69 µg/m³ 06:25
06:301,7 °C 92 % - 0,0 mm 0,0 mm nein 1,6 km/h 6,4 km/h 0,0 mm/h ONO 0,000 klux 0,0 W/qm 0,0 nein 7,37 µg/m³ 4,86 µg/m³ 06:30
06:351,7 °C 92 % - 0,0 mm 0,0 mm nein 1,6 km/h 4,8 km/h 0,0 mm/h ONO 0,000 klux 0,0 W/qm 0,0 nein 7,49 µg/m³ 4,74 µg/m³ 06:35
06:401,7 °C 92 % - 0,0 mm 0,0 mm nein 1,6 km/h 4,8 km/h 0,0 mm/h ONO 0,000 klux 0,0 W/qm 0,0 nein 6,78 µg/m³ 4,82 µg/m³ 06:40
06:451,7 °C 92 % - 0,0 mm 0,0 mm nein 0,0 km/h 3,2 km/h 0,0 mm/h ONO 0,000 klux 0,0 W/qm 0,0 nein 6,48 µg/m³ 4,52 µg/m³ 06:45
06:501,7 °C 92 % - 0,0 mm 0,0 mm nein 3,2 km/h 6,4 km/h 0,0 mm/h ONO 0,000 klux 0,0 W/qm 0,0 nein 7,00 µg/m³ 4,69 µg/m³ 06:50
06:551,7 °C 92 % - 0,0 mm 0,0 mm nein 1,6 km/h 4,8 km/h 0,0 mm/h NO 0,000 klux 0,0 W/qm 0,0 nein 7,84 µg/m³ 4,94 µg/m³ 06:55
07:001,7 °C 92 % - 0,0 mm 0,0 mm nein 1,6 km/h 4,8 km/h 0,0 mm/h NO 0,000 klux 0,0 W/qm 0,0 nein 7,38 µg/m³ 4,61 µg/m³ 07:00
07:051,7 °C 92 % - 0,0 mm 0,0 mm nein 1,6 km/h 4,8 km/h 0,0 mm/h NO 0,000 klux 0,0 W/qm 0,0 nein 6,69 µg/m³ 4,53 µg/m³ 07:05
07:101,7 °C 92 % - 0,0 mm 0,0 mm nein 1,6 km/h 6,4 km/h 0,0 mm/h NO 0,000 klux 0,0 W/qm 0,0 nein 7,46 µg/m³ 5,21 µg/m³ 07:10
07:151,7 °C 93 % - 0,0 mm 0,0 mm nein 1,6 km/h 4,8 km/h 0,0 mm/h NO 0,000 klux 0,0 W/qm 0,0 nein 8,52 µg/m³ 5,15 µg/m³ 07:15
07:201,7 °C 93 % - 0,0 mm 0,0 mm nein 1,6 km/h 4,8 km/h 0,0 mm/h NO 0,000 klux 0,0 W/qm 0,0 nein 7,29 µg/m³ 4,78 µg/m³ 07:20
07:251,7 °C 93 % - 0,0 mm 0,0 mm nein 3,2 km/h 6,4 km/h 0,0 mm/h NO 0,000 klux 0,0 W/qm 0,0 nein 6,99 µg/m³ 4,96 µg/m³ 07:25
07:301,7 °C 93 % - 0,0 mm 0,0 mm nein 1,6 km/h 6,4 km/h 0,0 mm/h NO 0,000 klux 0,0 W/qm 0,0 nein 6,76 µg/m³ 4,43 µg/m³ 07:30
07:351,7 °C 93 % - 0,0 mm 0,0 mm nein 3,2 km/h 9,7 km/h 0,0 mm/h NO 0,000 klux 0,0 W/qm 0,0 nein 7,03 µg/m³ 4,18 µg/m³ 07:35
07:401,7 °C 92 % - 0,0 mm 0,0 mm nein 3,2 km/h 9,7 km/h 0,0 mm/h ONO 0,000 klux 0,0 W/qm 0,0 nein 8,15 µg/m³ 5,06 µg/m³ 07:40
07:451,7 °C 92 % - 0,0 mm 0,0 mm nein 3,2 km/h 6,4 km/h 0,0 mm/h ONO 0,000 klux 0,0 W/qm 0,0 nein 8,34 µg/m³ 5,05 µg/m³ 07:45
07:501,7 °C 93 % - 0,0 mm 0,0 mm nein 3,2 km/h 8,0 km/h 0,0 mm/h ONO 0,000 klux 0,0 W/qm 0,0 nein 5,99 µg/m³ 4,30 µg/m³ 07:50
07:551,7 °C 93 % - 0,0 mm 0,0 mm nein 3,2 km/h 6,4 km/h 0,0 mm/h NO 0,000 klux 3,0 W/qm 0,0 nein 6,00 µg/m³ 4,04 µg/m³ 07:55
UhrzeitTemperaturFeuchteLuftdruckNiederschlagEvapotranspirationNiederschlag?WindWindböenRegenrateWindrichtungHelligkeitSolarstrahlungUV-IndexSonne?Feinstaub 10µmFeinstaub 2,5µmUhrzeit
08:001,7 °C 93 % - 0,0 mm 0,0 mm nein 3,2 km/h 8,0 km/h 0,0 mm/h ONO 0,000 klux 5,0 W/qm 0,0 nein 5,83 µg/m³ 3,96 µg/m³ 08:00
08:051,7 °C 92 % - 0,0 mm 0,0 mm nein 4,8 km/h 8,0 km/h 0,0 mm/h ONO 0,000 klux 7,0 W/qm 0,0 nein 6,64 µg/m³ 4,68 µg/m³ 08:05
08:101,7 °C 93 % - 0,0 mm 0,0 mm nein 3,2 km/h 12,9 km/h 0,0 mm/h ONO 0,000 klux 7,0 W/qm 0,0 nein 5,90 µg/m³ 3,93 µg/m³ 08:10
08:151,7 °C 92 % - 0,0 mm 0,0 mm nein 3,2 km/h 9,7 km/h 0,0 mm/h ONO 0,000 klux 7,0 W/qm 0,0 nein 6,80 µg/m³ 4,70 µg/m³ 08:15
08:201,7 °C 93 % - 0,0 mm 0,0 mm nein 3,2 km/h 8,0 km/h 0,0 mm/h O 0,000 klux 10,0 W/qm 0,0 nein 5,75 µg/m³ 3,86 µg/m³ 08:20
08:251,7 °C 92 % - 0,0 mm 0,0 mm nein 3,2 km/h 11,3 km/h 0,0 mm/h O 0,000 klux 15,0 W/qm 0,0 nein 6,72 µg/m³ 4,94 µg/m³ 08:25
08:301,7 °C 93 % - 0,0 mm 0,0 mm nein 4,8 km/h 9,7 km/h 0,0 mm/h ONO 0,000 klux 20,0 W/qm 0,0 nein 6,43 µg/m³ 4,07 µg/m³ 08:30
08:351,7 °C 93 % - 0,0 mm 0,0 mm nein 3,2 km/h 8,0 km/h 0,0 mm/h ONO 0,000 klux 25,0 W/qm 0,0 nein 5,85 µg/m³ 3,86 µg/m³ 08:35
08:401,7 °C 93 % - 0,0 mm 0,0 mm nein 3,2 km/h 12,9 km/h 0,0 mm/h ONO 0,000 klux 28,0 W/qm 0,0 nein 6,00 µg/m³ 4,18 µg/m³ 08:40
08:451,7 °C 93 % - 0,0 mm 0,0 mm nein 4,8 km/h 8,0 km/h 0,0 mm/h ONO 0,000 klux 34,0 W/qm 0,0 nein 5,80 µg/m³ 3,95 µg/m³ 08:45
08:501,7 °C 93 % - 0,0 mm 0,0 mm nein 4,8 km/h 8,0 km/h 0,0 mm/h ONO 0,000 klux 40,0 W/qm 0,0 nein 5,67 µg/m³ 3,77 µg/m³ 08:50
08:551,7 °C 92 % - 0,0 mm 0,0 mm nein 1,6 km/h 6,4 km/h 0,0 mm/h OSO 0,000 klux 45,0 W/qm 0,0 nein 6,66 µg/m³ 4,58 µg/m³ 08:55
09:001,7 °C 92 % - 0,0 mm 0,0 mm nein 4,8 km/h 9,7 km/h 0,0 mm/h ONO 0,000 klux 48,0 W/qm 0,0 nein 6,36 µg/m³ 4,20 µg/m³ 09:00
09:051,7 °C 92 % - 0,0 mm 0,0 mm nein 4,8 km/h 8,0 km/h 0,0 mm/h ONO 0,000 klux 53,0 W/qm 0,0 nein 6,62 µg/m³ 4,10 µg/m³ 09:05
09:101,7 °C 92 % - 0,0 mm 0,0 mm nein 3,2 km/h 8,0 km/h 0,0 mm/h ONO 0,000 klux 59,0 W/qm 0,0 nein 7,95 µg/m³ 5,40 µg/m³ 09:10
09:151,7 °C 92 % - 0,0 mm 0,0 mm nein 3,2 km/h 11,3 km/h 0,0 mm/h ONO 0,000 klux 61,0 W/qm 0,0 nein 5,77 µg/m³ 4,22 µg/m³ 09:15
09:201,7 °C 92 % - 0,0 mm 0,0 mm nein 4,8 km/h 8,0 km/h 0,0 mm/h O 0,000 klux 63,0 W/qm 0,0 nein 5,84 µg/m³ 4,22 µg/m³ 09:20
09:252,2 °C 92 % - 0,0 mm 0,0 mm nein 3,2 km/h 8,0 km/h 0,0 mm/h ONO 0,000 klux 67,0 W/qm 0,0 nein 6,78 µg/m³ 4,77 µg/m³ 09:25
09:302,2 °C 92 % - 0,0 mm 0,0 mm nein 3,2 km/h 6,4 km/h 0,0 mm/h ONO 0,000 klux 69,0 W/qm 0,0 nein 7,33 µg/m³ 4,39 µg/m³ 09:30
09:352,2 °C 92 % - 0,0 mm 0,0 mm nein 3,2 km/h 9,7 km/h 0,0 mm/h ONO 0,000 klux 72,0 W/qm 0,0 nein 6,75 µg/m³ 4,64 µg/m³ 09:35
09:402,2 °C 92 % - 0,0 mm 0,0 mm nein 4,8 km/h 9,7 km/h 0,0 mm/h ONO 0,000 klux 79,0 W/qm 0,0 nein 7,74 µg/m³ 5,21 µg/m³ 09:40
09:452,2 °C 92 % - 0,0 mm 0,0 mm nein 3,2 km/h 6,4 km/h 0,0 mm/h ONO 0,000 klux 85,0 W/qm 0,0 nein 6,11 µg/m³ 4,25 µg/m³ 09:45
09:502,2 °C 92 % - 0,0 mm 0,0 mm nein 1,6 km/h 6,4 km/h 0,0 mm/h ONO 0,000 klux 92,0 W/qm 0,0 nein 6,65 µg/m³ 4,64 µg/m³ 09:50
09:552,2 °C 92 % - 0,0 mm 0,0 mm nein 3,2 km/h 6,4 km/h 0,0 mm/h ONO 0,000 klux 98,0 W/qm 0,0 nein 6,59 µg/m³ 4,46 µg/m³ 09:55
UhrzeitTemperaturFeuchteLuftdruckNiederschlagEvapotranspirationNiederschlag?WindWindböenRegenrateWindrichtungHelligkeitSolarstrahlungUV-IndexSonne?Feinstaub 10µmFeinstaub 2,5µmUhrzeit
10:002,2 °C 92 % - 0,0 mm 0,0 mm nein 3,2 km/h 6,4 km/h 0,0 mm/h ONO 0,000 klux 106,0 W/qm 0,0 nein 6,12 µg/m³ 4,11 µg/m³ 10:00
10:052,2 °C 92 % - 0,0 mm 0,0 mm nein 1,6 km/h 4,8 km/h 0,0 mm/h ONO 0,000 klux 116,0 W/qm 0,0 nein 6,09 µg/m³ 4,32 µg/m³ 10:05
10:102,2 °C 92 % - 0,0 mm 0,0 mm nein 1,6 km/h 4,8 km/h 0,0 mm/h ONO 0,000 klux 112,0 W/qm 0,0 nein 5,70 µg/m³ 4,05 µg/m³ 10:10
10:152,2 °C 92 % - 0,0 mm 0,0 mm nein 1,6 km/h 4,8 km/h 0,0 mm/h ONO 0,000 klux 107,0 W/qm 0,0 nein 6,58 µg/m³ 4,43 µg/m³ 10:15
10:202,2 °C 92 % - 0,0 mm 0,0 mm nein 3,2 km/h 9,7 km/h 0,0 mm/h O 0,000 klux 104,0 W/qm 0,0 nein 5,82 µg/m³ 4,06 µg/m³ 10:20
10:252,8 °C 91 % - 0,0 mm 0,0 mm nein 3,2 km/h 8,0 km/h 0,0 mm/h ONO 0,000 klux 109,0 W/qm 0,0 nein 6,38 µg/m³ 4,91 µg/m³ 10:25
10:302,8 °C 91 % - 0,0 mm 0,0 mm nein 1,6 km/h 8,0 km/h 0,0 mm/h ONO 0,000 klux 116,0 W/qm 0,0 nein 6,64 µg/m³ 5,01 µg/m³ 10:30
10:352,8 °C 91 % - 0,0 mm 0,0 mm nein 1,6 km/h 4,8 km/h 0,0 mm/h ONO 0,000 klux 138,0 W/qm 0,0 nein 6,31 µg/m³ 4,78 µg/m³ 10:35
10:402,8 °C 91 % - 0,0 mm 0,0 mm nein 1,6 km/h 8,0 km/h 0,0 mm/h ONO 0,000 klux 175,0 W/qm 0,0 nein 6,81 µg/m³ 4,55 µg/m³ 10:40
10:453,3 °C 90 % - 0,0 mm 0,0 mm nein 4,8 km/h 9,7 km/h 0,0 mm/h O 0,000 klux 152,0 W/qm 0,0 nein 7,30 µg/m³ 4,89 µg/m³ 10:45
10:502,8 °C 89 % - 0,0 mm 0,0 mm nein 3,2 km/h 8,0 km/h 0,0 mm/h ONO 0,000 klux 116,0 W/qm 0,0 nein 8,04 µg/m³ 5,85 µg/m³ 10:50
10:552,8 °C 89 % - 0,0 mm 0,0 mm nein 3,2 km/h 8,0 km/h 0,0 mm/h ONO 0,000 klux 110,0 W/qm 0,0 nein 7,67 µg/m³ 5,63 µg/m³ 10:55
11:002,8 °C 89 % - 0,0 mm 0,1 mm nein 3,2 km/h 8,0 km/h 0,0 mm/h ONO 0,000 klux 116,0 W/qm 0,0 nein 7,70 µg/m³ 5,17 µg/m³ 11:00
11:052,8 °C 88 % - 0,0 mm 0,0 mm nein 4,8 km/h 11,3 km/h 0,0 mm/h ONO 0,000 klux 124,0 W/qm 0,0 nein 8,65 µg/m³ 6,49 µg/m³ 11:05
11:102,8 °C 88 % - 0,0 mm 0,0 mm nein 3,2 km/h 6,4 km/h 0,0 mm/h ONO 0,000 klux 137,0 W/qm 0,0 nein 7,73 µg/m³ 5,71 µg/m³ 11:10
11:152,8 °C 89 % - 0,0 mm 0,0 mm nein 4,8 km/h 11,3 km/h 0,0 mm/h ONO 0,000 klux 155,0 W/qm 0,0 nein 8,10 µg/m³ 5,75 µg/m³ 11:15
11:203,3 °C 88 % - 0,0 mm 0,0 mm nein 4,8 km/h 9,7 km/h 0,0 mm/h ONO 0,000 klux 172,0 W/qm 0,0 nein 8,10 µg/m³ 5,82 µg/m³ 11:20
11:253,3 °C 88 % - 0,0 mm 0,0 mm nein 4,8 km/h 9,7 km/h 0,0 mm/h O 0,000 klux 179,0 W/qm 0,0 nein 7,79 µg/m³ 6,01 µg/m³ 11:25
11:303,3 °C 88 % - 0,0 mm 0,0 mm nein 4,8 km/h 9,7 km/h 0,0 mm/h O 0,000 klux 182,0 W/qm 0,0 nein 8,60 µg/m³ 6,30 µg/m³ 11:30
11:353,3 °C 88 % - 0,0 mm 0,0 mm nein 3,2 km/h 9,7 km/h 0,0 mm/h O 0,000 klux 185,0 W/qm 0,0 nein 8,65 µg/m³ 6,08 µg/m³ 11:35
11:403,3 °C 88 % - 0,0 mm 0,0 mm nein 3,2 km/h 8,0 km/h 0,0 mm/h ONO 0,000 klux 175,0 W/qm 0,0 nein 7,74 µg/m³ 6,30 µg/m³ 11:40
11:453,3 °C 88 % - 0,0 mm 0,0 mm nein 4,8 km/h 9,7 km/h 0,0 mm/h ONO 0,000 klux 203,0 W/qm 0,3 nein 8,24 µg/m³ 5,85 µg/m³ 11:45
11:503,3 °C 88 % - 0,0 mm 0,0 mm nein 3,2 km/h 8,0 km/h 0,0 mm/h O 0,000 klux 305,0 W/qm 0,5 nein 8,33 µg/m³ 5,28 µg/m³ 11:50
11:553,3 °C 88 % - 0,0 mm 0,0 mm nein 6,4 km/h 11,3 km/h 0,0 mm/h ONO 0,000 klux 134,0 W/qm 0,3 nein 7,86 µg/m³ 5,92 µg/m³ 11:55
UhrzeitTemperaturFeuchteLuftdruckNiederschlagEvapotranspirationNiederschlag?WindWindböenRegenrateWindrichtungHelligkeitSolarstrahlungUV-IndexSonne?Feinstaub 10µmFeinstaub 2,5µmUhrzeit
12:003,3 °C 88 % - 0,0 mm 0,1 mm nein 3,2 km/h 6,4 km/h 0,0 mm/h ONO 0,000 klux 78,0 W/qm 0,0 nein 8,15 µg/m³ 6,08 µg/m³ 12:00
12:053,3 °C 88 % - 0,0 mm 0,0 mm nein 4,8 km/h 8,0 km/h 0,0 mm/h ONO 0,000 klux 87,0 W/qm 0,0 nein 8,62 µg/m³ 5,98 µg/m³ 12:05
12:103,3 °C 88 % - 0,0 mm 0,0 mm nein 3,2 km/h 8,0 km/h 0,0 mm/h O 0,000 klux 105,0 W/qm 0,0 nein 8,85 µg/m³ 6,13 µg/m³ 12:10
12:153,3 °C 88 % - 0,0 mm 0,0 mm nein 4,8 km/h 9,7 km/h 0,0 mm/h O 0,000 klux 143,0 W/qm 0,1 nein 8,98 µg/m³ 5,93 µg/m³ 12:15
12:203,3 °C 88 % - 0,0 mm 0,0 mm nein 3,2 km/h 9,7 km/h 0,0 mm/h ONO 0,000 klux 228,0 W/qm 0,5 nein 8,49 µg/m³ 6,11 µg/m³ 12:20
12:253,3 °C 88 % - 0,0 mm 0,0 mm nein 4,8 km/h 9,7 km/h 0,0 mm/h ONO 0,000 klux 223,0 W/qm 0,3 nein 10,93 µg/m³ 8,14 µg/m³ 12:25
12:303,3 °C 88 % - 0,0 mm 0,0 mm nein 1,6 km/h 4,8 km/h 0,0 mm/h ONO 0,000 klux 130,0 W/qm 0,0 nein 7,59 µg/m³ 5,65 µg/m³ 12:30
12:353,3 °C 88 % - 0,0 mm 0,0 mm nein 1,6 km/h 8,0 km/h 0,0 mm/h ONO 0,000 klux 156,0 W/qm 0,0 nein 9,11 µg/m³ 5,79 µg/m³ 12:35
12:403,3 °C 88 % - 0,0 mm 0,0 mm nein 3,2 km/h 8,0 km/h 0,0 mm/h OSO 0,000 klux 166,0 W/qm 0,0 nein 9,29 µg/m³ 7,22 µg/m³ 12:40
12:453,9 °C 88 % - 0,0 mm 0,0 mm nein 3,2 km/h 9,7 km/h 0,0 mm/h OSO 0,000 klux 169,0 W/qm 0,0 nein 8,76 µg/m³ 6,66 µg/m³ 12:45
12:503,9 °C 87 % - 0,0 mm 0,0 mm nein 4,8 km/h 12,9 km/h 0,0 mm/h OSO 0,000 klux 188,0 W/qm 0,0 nein 9,98 µg/m³ 7,16 µg/m³ 12:50
12:553,9 °C 86 % - 0,0 mm 0,0 mm nein 4,8 km/h 8,0 km/h 0,0 mm/h O 0,000 klux 198,0 W/qm 0,0 nein 9,84 µg/m³ 7,38 µg/m³ 12:55
13:003,9 °C 86 % - 0,0 mm 0,1 mm nein 3,2 km/h 8,0 km/h 0,0 mm/h O 0,000 klux 190,0 W/qm 0,0 nein 10,83 µg/m³ 8,19 µg/m³ 13:00
13:053,9 °C 86 % - 0,0 mm 0,0 mm nein 3,2 km/h 6,4 km/h 0,0 mm/h OSO 0,000 klux 133,0 W/qm 0,0 nein 10,79 µg/m³ 7,93 µg/m³ 13:05
13:103,9 °C 86 % - 0,0 mm 0,0 mm nein 1,6 km/h 4,8 km/h 0,0 mm/h OSO 0,000 klux 130,0 W/qm 0,0 nein 9,15 µg/m³ 6,19 µg/m³ 13:10
13:154,4 °C 85 % - 0,0 mm 0,0 mm nein 4,8 km/h 9,7 km/h 0,0 mm/h O 0,000 klux 129,0 W/qm 0,0 nein 12,19 µg/m³ 9,53 µg/m³ 13:15
13:204,4 °C 85 % - 0,0 mm 0,0 mm nein 3,2 km/h 6,4 km/h 0,0 mm/h O 0,000 klux 117,0 W/qm 0,0 nein 11,22 µg/m³ 8,30 µg/m³ 13:20
13:254,4 °C 85 % - 0,0 mm 0,0 mm nein 3,2 km/h 6,4 km/h 0,0 mm/h O 0,000 klux 110,0 W/qm 0,0 nein 9,26 µg/m³ 7,05 µg/m³ 13:25
13:304,4 °C 85 % - 0,0 mm 0,0 mm nein 1,6 km/h 8,0 km/h 0,0 mm/h O 0,000 klux 116,0 W/qm 0,0 nein 10,10 µg/m³ 6,58 µg/m³ 13:30
13:354,4 °C 85 % - 0,0 mm 0,0 mm nein 1,6 km/h 4,8 km/h 0,0 mm/h O 0,000 klux 120,0 W/qm 0,0 nein 9,79 µg/m³ 7,15 µg/m³ 13:35
13:404,4 °C 85 % - 0,0 mm 0,0 mm nein 3,2 km/h 6,4 km/h 0,0 mm/h O 0,000 klux 121,0 W/qm 0,0 nein 9,95 µg/m³ 7,11 µg/m³ 13:40
13:454,4 °C 85 % - 0,0 mm 0,0 mm nein 3,2 km/h 8,0 km/h 0,0 mm/h ONO 0,000 klux 132,0 W/qm 0,0 nein 8,70 µg/m³ 6,73 µg/m³ 13:45
13:504,4 °C 85 % - 0,0 mm 0,0 mm nein 3,2 km/h 9,7 km/h 0,0 mm/h O 0,000 klux 137,0 W/qm 0,0 nein 9,53 µg/m³ 7,29 µg/m³ 13:50
13:555,0 °C 85 % - 0,0 mm 0,0 mm nein 3,2 km/h 8,0 km/h 0,0 mm/h O 0,000 klux 131,0 W/qm 0,0 nein 9,59 µg/m³ 7,40 µg/m³ 13:55
UhrzeitTemperaturFeuchteLuftdruckNiederschlagEvapotranspirationNiederschlag?WindWindböenRegenrateWindrichtungHelligkeitSolarstrahlungUV-IndexSonne?Feinstaub 10µmFeinstaub 2,5µmUhrzeit
14:005,0 °C 83 % - 0,0 mm 0,1 mm nein 3,2 km/h 8,0 km/h 0,0 mm/h ONO 0,000 klux 126,0 W/qm 0,0 nein 9,27 µg/m³ 7,29 µg/m³ 14:00
14:055,0 °C 84 % - 0,0 mm 0,0 mm nein 3,2 km/h 8,0 km/h 0,0 mm/h ONO 0,000 klux 113,0 W/qm 0,0 nein 9,72 µg/m³ 7,55 µg/m³ 14:05
14:105,0 °C 83 % - 0,0 mm 0,0 mm nein 4,8 km/h 8,0 km/h 0,0 mm/h O 0,000 klux 112,0 W/qm 0,0 nein 10,73 µg/m³ 8,13 µg/m³ 14:10
14:155,0 °C 84 % - 0,0 mm 0,0 mm nein 3,2 km/h 9,7 km/h 0,0 mm/h O 0,000 klux 106,0 W/qm 0,0 nein 9,51 µg/m³ 7,56 µg/m³ 14:15
14:205,0 °C 83 % - 0,0 mm 0,0 mm nein 4,8 km/h 9,7 km/h 0,0 mm/h ONO 0,000 klux 105,0 W/qm 0,0 nein 11,06 µg/m³ 8,69 µg/m³ 14:20
14:255,0 °C 83 % - 0,0 mm 0,0 mm nein 3,2 km/h 8,0 km/h 0,0 mm/h O 0,000 klux 101,0 W/qm 0,0 nein 10,50 µg/m³ 7,20 µg/m³ 14:25
14:305,0 °C 83 % - 0,0 mm 0,0 mm nein 4,8 km/h 9,7 km/h 0,0 mm/h O 0,000 klux 84,0 W/qm 0,0 nein 9,65 µg/m³ 7,29 µg/m³ 14:30
14:355,0 °C 84 % - 0,0 mm 0,0 mm nein 3,2 km/h 6,4 km/h 0,0 mm/h ONO 0,000 klux 68,0 W/qm 0,0 nein 9,46 µg/m³ 7,28 µg/m³ 14:35
14:405,6 °C 84 % - 0,0 mm 0,0 mm nein 4,8 km/h 8,0 km/h 0,0 mm/h ONO 0,000 klux 66,0 W/qm 0,0 nein 9,55 µg/m³ 6,90 µg/m³ 14:40
14:455,6 °C 84 % - 0,0 mm 0,0 mm nein 4,8 km/h 8,0 km/h 0,0 mm/h ONO 0,000 klux 51,0 W/qm 0,0 nein 10,86 µg/m³ 8,56 µg/m³ 14:45
14:505,6 °C 84 % - 0,0 mm 0,0 mm nein 3,2 km/h 8,0 km/h 0,0 mm/h ONO 0,000 klux 49,0 W/qm 0,0 nein 11,22 µg/m³ 8,37 µg/m³ 14:50
14:555,6 °C 84 % - 0,0 mm 0,0 mm nein 1,6 km/h 6,4 km/h 0,0 mm/h O 0,000 klux 58,0 W/qm 0,0 nein 10,56 µg/m³ 8,28 µg/m³ 14:55
15:005,6 °C 84 % - 0,0 mm 0,1 mm nein 1,6 km/h 3,2 km/h 0,0 mm/h O 0,000 klux 44,0 W/qm 0,0 nein 10,38 µg/m³ 9,21 µg/m³ 15:00
15:055,6 °C 84 % - 0,0 mm 0,0 mm nein 1,6 km/h 4,8 km/h 0,0 mm/h O 0,000 klux 33,0 W/qm 0,0 nein 12,41 µg/m³ 9,37 µg/m³ 15:05
15:105,6 °C 84 % - 0,0 mm 0,0 mm nein 1,6 km/h 4,8 km/h 0,0 mm/h O 0,000 klux 33,0 W/qm 0,0 nein 11,59 µg/m³ 9,99 µg/m³ 15:10
15:155,6 °C 84 % - 0,0 mm 0,0 mm nein 0,0 km/h 3,2 km/h 0,0 mm/h O 0,000 klux 33,0 W/qm 0,0 nein 11,73 µg/m³ 8,58 µg/m³ 15:15
15:205,6 °C 83 % - 0,0 mm 0,0 mm nein 1,6 km/h 4,8 km/h 0,0 mm/h O 0,000 klux 35,0 W/qm 0,0 nein 10,53 µg/m³ 7,86 µg/m³ 15:20
15:255,6 °C 83 % - 0,0 mm 0,0 mm nein 1,6 km/h 3,2 km/h 0,0 mm/h O 0,000 klux 37,0 W/qm 0,0 nein 8,06 µg/m³ 6,71 µg/m³ 15:25
15:305,6 °C 82 % - 0,0 mm 0,0 mm nein 1,6 km/h 6,4 km/h 0,0 mm/h O 0,000 klux 37,0 W/qm 0,0 nein 10,34 µg/m³ 7,39 µg/m³ 15:30
15:355,6 °C 82 % - 0,0 mm 0,0 mm nein 1,6 km/h 4,8 km/h 0,0 mm/h O 0,000 klux 34,0 W/qm 0,0 nein 9,53 µg/m³ 7,31 µg/m³ 15:35
15:405,6 °C 82 % - 0,0 mm 0,0 mm nein 1,6 km/h 6,4 km/h 0,0 mm/h O 0,000 klux 33,0 W/qm 0,0 nein 11,01 µg/m³ 8,48 µg/m³ 15:40
15:455,6 °C 82 % - 0,0 mm 0,0 mm nein 1,6 km/h 4,8 km/h 0,0 mm/h O 0,000 klux 27,0 W/qm 0,0 nein 20,60 µg/m³ 12,88 µg/m³ 15:45
15:505,0 °C 82 % - 0,0 mm 0,0 mm nein 3,2 km/h 6,4 km/h 0,0 mm/h O 0,000 klux 26,0 W/qm 0,0 nein 16,39 µg/m³ 11,98 µg/m³ 15:50
15:555,0 °C 82 % - 0,0 mm 0,0 mm nein 1,6 km/h 6,4 km/h 0,0 mm/h O 0,000 klux 24,0 W/qm 0,0 nein 14,67 µg/m³ 11,89 µg/m³ 15:55
UhrzeitTemperaturFeuchteLuftdruckNiederschlagEvapotranspirationNiederschlag?WindWindböenRegenrateWindrichtungHelligkeitSolarstrahlungUV-IndexSonne?Feinstaub 10µmFeinstaub 2,5µmUhrzeit
16:005,0 °C 82 % - 0,0 mm 0,0 mm nein 0,0 km/h 3,2 km/h 0,0 mm/h O 0,000 klux 19,0 W/qm 0,0 nein 13,81 µg/m³ 9,82 µg/m³ 16:00
16:055,0 °C 82 % - 0,0 mm 0,0 mm nein 0,0 km/h 1,6 km/h 0,0 mm/h O 0,000 klux 14,0 W/qm 0,0 nein 11,41 µg/m³ 8,74 µg/m³ 16:05
16:105,0 °C 82 % - 0,0 mm 0,0 mm nein 0,0 km/h 3,2 km/h 0,0 mm/h O 0,000 klux 11,0 W/qm 0,0 nein 14,44 µg/m³ 11,24 µg/m³ 16:10
16:155,0 °C 82 % - 0,0 mm 0,0 mm nein 0,0 km/h 0,0 km/h 0,0 mm/h N 0,000 klux 7,0 W/qm 0,0 nein 13,77 µg/m³ 11,57 µg/m³ 16:15
16:205,0 °C 82 % - 0,0 mm 0,0 mm nein 0,0 km/h 3,2 km/h 0,0 mm/h O 0,000 klux 5,0 W/qm 0,0 nein 10,81 µg/m³ 8,27 µg/m³ 16:20
16:255,0 °C 82 % - 0,0 mm 0,0 mm nein 3,2 km/h 6,4 km/h 0,0 mm/h O 0,000 klux 2,0 W/qm 0,0 nein 9,91 µg/m³ 8,22 µg/m³ 16:25
16:305,0 °C 82 % - 0,0 mm 0,0 mm nein 1,6 km/h 4,8 km/h 0,0 mm/h O 0,000 klux 0,0 W/qm 0,0 nein 12,82 µg/m³ 9,26 µg/m³ 16:30
16:355,0 °C 83 % - 0,0 mm 0,0 mm nein 1,6 km/h 6,4 km/h 0,0 mm/h O 0,000 klux 0,0 W/qm 0,0 nein 9,75 µg/m³ 7,30 µg/m³ 16:35
16:405,0 °C 83 % - 0,0 mm 0,0 mm nein 1,6 km/h 3,2 km/h 0,0 mm/h O 0,000 klux 0,0 W/qm 0,0 nein 11,43 µg/m³ 8,10 µg/m³ 16:40
16:455,0 °C 84 % - 0,0 mm 0,0 mm nein 3,2 km/h 6,4 km/h 0,0 mm/h O 0,000 klux 0,0 W/qm 0,0 nein 12,32 µg/m³ 7,02 µg/m³ 16:45
16:505,0 °C 84 % - 0,0 mm 0,0 mm nein 1,6 km/h 4,8 km/h 0,0 mm/h O 0,000 klux 0,0 W/qm 0,0 nein 10,56 µg/m³ 8,32 µg/m³ 16:50
16:555,0 °C 84 % - 0,0 mm 0,0 mm nein 1,6 km/h 3,2 km/h 0,0 mm/h O 0,000 klux 0,0 W/qm 0,0 nein 9,64 µg/m³ 7,99 µg/m³ 16:55
17:005,0 °C 84 % - 0,0 mm 0,0 mm nein 1,6 km/h 4,8 km/h 0,0 mm/h O 0,000 klux 0,0 W/qm 0,0 nein 9,72 µg/m³ 7,51 µg/m³ 17:00
17:054,4 °C 84 % - 0,0 mm 0,0 mm nein 0,0 km/h 3,2 km/h 0,0 mm/h O 0,000 klux 0,0 W/qm 0,0 nein 10,29 µg/m³ 7,56 µg/m³ 17:05
17:104,4 °C 84 % - 0,0 mm 0,0 mm nein 0,0 km/h 3,2 km/h 0,0 mm/h O 0,000 klux 0,0 W/qm 0,0 nein 12,84 µg/m³ 9,55 µg/m³ 17:10
17:154,4 °C 85 % - 0,0 mm 0,0 mm nein 0,0 km/h 0,0 km/h 0,0 mm/h N 0,000 klux 0,0 W/qm 0,0 nein 13,22 µg/m³ 10,12 µg/m³ 17:15
17:204,4 °C 85 % - 0,0 mm 0,0 mm nein 0,0 km/h 0,0 km/h 0,0 mm/h N 0,000 klux 0,0 W/qm 0,0 nein 16,92 µg/m³ 11,83 µg/m³ 17:20
17:254,4 °C 85 % - 0,0 mm 0,0 mm nein 0,0 km/h 0,0 km/h 0,0 mm/h N 0,000 klux 0,0 W/qm 0,0 nein 15,61 µg/m³ 11,66 µg/m³ 17:25
17:304,4 °C 85 % - 0,0 mm 0,0 mm nein 0,0 km/h 0,0 km/h 0,0 mm/h N 0,000 klux 0,0 W/qm 0,0 nein 12,93 µg/m³ 9,74 µg/m³ 17:30
17:354,4 °C 85 % - 0,0 mm 0,0 mm nein 0,0 km/h 0,0 km/h 0,0 mm/h N 0,000 klux 0,0 W/qm 0,0 nein 17,51 µg/m³ 13,01 µg/m³ 17:35
17:404,4 °C 85 % - 0,0 mm 0,0 mm nein 0,0 km/h 0,0 km/h 0,0 mm/h N 0,000 klux 0,0 W/qm 0,0 nein 17,48 µg/m³ 13,16 µg/m³ 17:40
17:454,4 °C 85 % - 0,0 mm 0,0 mm nein 0,0 km/h 0,0 km/h 0,0 mm/h N 0,000 klux 0,0 W/qm 0,0 nein 15,05 µg/m³ 11,19 µg/m³ 17:45
17:504,4 °C 85 % - 0,0 mm 0,0 mm nein 0,0 km/h 0,0 km/h 0,0 mm/h N 0,000 klux 0,0 W/qm 0,0 nein 47,06 µg/m³ 25,74 µg/m³ 17:50
17:554,4 °C 86 % - 0,0 mm 0,0 mm nein 0,0 km/h 0,0 km/h 0,0 mm/h N 0,000 klux 0,0 W/qm 0,0 nein 39,04 µg/m³ 22,88 µg/m³ 17:55
UhrzeitTemperaturFeuchteLuftdruckNiederschlagEvapotranspirationNiederschlag?WindWindböenRegenrateWindrichtungHelligkeitSolarstrahlungUV-IndexSonne?Feinstaub 10µmFeinstaub 2,5µmUhrzeit
18:004,4 °C 86 % - 0,0 mm 0,0 mm nein 0,0 km/h 0,0 km/h 0,0 mm/h N 0,000 klux 0,0 W/qm 0,0 nein 13,56 µg/m³ 10,51 µg/m³ 18:00
18:054,4 °C 86 % - 0,0 mm 0,0 mm nein 0,0 km/h 4,8 km/h 0,0 mm/h O 0,000 klux 0,0 W/qm 0,0 nein 13,62 µg/m³ 10,82 µg/m³ 18:05
18:104,4 °C 87 % - 0,0 mm 0,0 mm nein 3,2 km/h 4,8 km/h 0,0 mm/h O 0,000 klux 0,0 W/qm 0,0 nein 11,77 µg/m³ 8,80 µg/m³ 18:10
18:154,4 °C 87 % - 0,0 mm 0,0 mm nein 1,6 km/h 4,8 km/h 0,0 mm/h O 0,000 klux 0,0 W/qm 0,0 nein 13,07 µg/m³ 10,58 µg/m³ 18:15
18:204,4 °C 87 % - 0,0 mm 0,0 mm nein 0,0 km/h 3,2 km/h 0,0 mm/h O 0,000 klux 0,0 W/qm 0,0 nein 16,55 µg/m³ 13,93 µg/m³ 18:20
18:253,9 °C 87 % - 0,0 mm 0,0 mm nein 1,6 km/h 3,2 km/h 0,0 mm/h O 0,000 klux 0,0 W/qm 0,0 nein 17,39 µg/m³ 13,78 µg/m³ 18:25
18:303,9 °C 87 % - 0,0 mm 0,0 mm nein 1,6 km/h 3,2 km/h 0,0 mm/h O 0,000 klux 0,0 W/qm 0,0 nein 19,59 µg/m³ 14,67 µg/m³ 18:30
18:353,9 °C 87 % - 0,0 mm 0,0 mm nein 0,0 km/h 1,6 km/h 0,0 mm/h O 0,000 klux 0,0 W/qm 0,0 nein 15,72 µg/m³ 12,94 µg/m³ 18:35
18:403,9 °C 87 % - 0,0 mm 0,0 mm nein 0,0 km/h 0,0 km/h 0,0 mm/h N 0,000 klux 0,0 W/qm 0,0 nein 12,18 µg/m³ 9,90 µg/m³ 18:40
18:453,9 °C 87 % - 0,0 mm 0,0 mm nein 0,0 km/h 0,0 km/h 0,0 mm/h N 0,000 klux 0,0 W/qm 0,0 nein 12,08 µg/m³ 9,42 µg/m³ 18:45
18:503,9 °C 87 % - 0,0 mm 0,0 mm nein 0,0 km/h 0,0 km/h 0,0 mm/h N 0,000 klux 0,0 W/qm 0,0 nein 10,30 µg/m³ 7,81 µg/m³ 18:50
18:553,9 °C 88 % - 0,0 mm 0,0 mm nein 1,6 km/h 6,4 km/h 0,0 mm/h O 0,000 klux 0,0 W/qm 0,0 nein 13,47 µg/m³ 9,90 µg/m³ 18:55
19:003,9 °C 88 % - 0,0 mm 0,0 mm nein 3,2 km/h 8,0 km/h 0,0 mm/h O 0,000 klux 0,0 W/qm 0,0 nein 15,14 µg/m³ 10,19 µg/m³ 19:00
19:053,9 °C 88 % - 0,0 mm 0,0 mm nein 1,6 km/h 4,8 km/h 0,0 mm/h O 0,000 klux 0,0 W/qm 0,0 nein 11,28 µg/m³ 8,29 µg/m³ 19:05
19:103,9 °C 88 % - 0,0 mm 0,0 mm nein 1,6 km/h 6,4 km/h 0,0 mm/h O 0,000 klux 0,0 W/qm 0,0 nein 11,95 µg/m³ 8,11 µg/m³ 19:10
19:153,9 °C 88 % - 0,0 mm 0,0 mm nein 1,6 km/h 3,2 km/h 0,0 mm/h O 0,000 klux 0,0 W/qm 0,0 nein 10,69 µg/m³ 8,28 µg/m³ 19:15
19:203,9 °C 88 % - 0,0 mm 0,0 mm nein 1,6 km/h 6,4 km/h 0,0 mm/h O 0,000 klux 0,0 W/qm 0,0 nein 9,83 µg/m³ 7,45 µg/m³ 19:20
19:253,9 °C 88 % - 0,0 mm 0,0 mm nein 1,6 km/h 3,2 km/h 0,0 mm/h O 0,000 klux 0,0 W/qm 0,0 nein 10,18 µg/m³ 8,11 µg/m³ 19:25
19:303,9 °C 89 % - 0,0 mm 0,0 mm nein 1,6 km/h 3,2 km/h 0,0 mm/h O 0,000 klux 0,0 W/qm 0,0 nein 9,71 µg/m³ 7,87 µg/m³ 19:30
19:353,9 °C 89 % - 0,0 mm 0,0 mm nein 1,6 km/h 4,8 km/h 0,0 mm/h O 0,000 klux 0,0 W/qm 0,0 nein 10,83 µg/m³ 8,26 µg/m³ 19:35
19:403,9 °C 89 % - 0,0 mm 0,0 mm nein 1,6 km/h 4,8 km/h 0,0 mm/h O 0,000 klux 0,0 W/qm 0,0 nein 10,62 µg/m³ 7,90 µg/m³ 19:40
19:453,9 °C 89 % - 0,0 mm 0,0 mm nein 1,6 km/h 6,4 km/h 0,0 mm/h O 0,000 klux 0,0 W/qm 0,0 nein 8,71 µg/m³ 6,42 µg/m³ 19:45
19:503,9 °C 89 % - 0,0 mm 0,0 mm nein 3,2 km/h 9,7 km/h 0,0 mm/h SO 0,000 klux 0,0 W/qm 0,0 nein 9,97 µg/m³ 7,26 µg/m³ 19:50
19:553,9 °C 89 % - 0,0 mm 0,0 mm nein 1,6 km/h 4,8 km/h 0,0 mm/h SO 0,000 klux 0,0 W/qm 0,0 nein 9,64 µg/m³ 7,24 µg/m³ 19:55
UhrzeitTemperaturFeuchteLuftdruckNiederschlagEvapotranspirationNiederschlag?WindWindböenRegenrateWindrichtungHelligkeitSolarstrahlungUV-IndexSonne?Feinstaub 10µmFeinstaub 2,5µmUhrzeit
20:003,9 °C 90 % - 0,0 mm 0,0 mm nein 1,6 km/h 4,8 km/h 0,0 mm/h SO 0,000 klux 0,0 W/qm 0,0 nein 7,61 µg/m³ 5,62 µg/m³ 20:00
20:053,9 °C 90 % - 0,0 mm 0,0 mm nein 1,6 km/h 9,7 km/h 0,0 mm/h SO 0,000 klux 0,0 W/qm 0,0 nein 8,96 µg/m³ 6,32 µg/m³ 20:05
20:103,9 °C 90 % - 0,0 mm 0,0 mm nein 4,8 km/h 11,3 km/h 0,0 mm/h OSO 0,000 klux 0,0 W/qm 0,0 nein 8,02 µg/m³ 5,54 µg/m³ 20:10
20:153,9 °C 90 % - 0,0 mm 0,0 mm nein 3,2 km/h 6,4 km/h 0,0 mm/h SO 0,000 klux 0,0 W/qm 0,0 nein 8,66 µg/m³ 6,13 µg/m³ 20:15
20:203,9 °C 90 % - 0,0 mm 0,0 mm nein 3,2 km/h 8,0 km/h 0,0 mm/h SO 0,000 klux 0,0 W/qm 0,0 nein 7,22 µg/m³ 5,78 µg/m³ 20:20
20:253,9 °C 90 % - 0,0 mm 0,0 mm nein 4,8 km/h 12,9 km/h 0,0 mm/h OSO 0,000 klux 0,0 W/qm 0,0 nein 8,93 µg/m³ 6,02 µg/m³ 20:25
20:303,9 °C 90 % - 0,0 mm 0,0 mm nein 3,2 km/h 6,4 km/h 0,0 mm/h SO 0,000 klux 0,0 W/qm 0,0 nein 10,38 µg/m³ 7,97 µg/m³ 20:30
20:353,9 °C 91 % - 0,0 mm 0,0 mm nein 3,2 km/h 6,4 km/h 0,0 mm/h SO 0,000 klux 0,0 W/qm 0,0 nein 8,99 µg/m³ 6,70 µg/m³ 20:35
20:403,9 °C 90 % - 0,0 mm 0,0 mm nein 1,6 km/h 6,4 km/h 0,0 mm/h SO 0,000 klux 0,0 W/qm 0,0 nein 11,31 µg/m³ 7,71 µg/m³ 20:40
20:453,9 °C 91 % - 0,0 mm 0,0 mm nein 3,2 km/h 6,4 km/h 0,0 mm/h SO 0,000 klux 0,0 W/qm 0,0 nein 8,26 µg/m³ 6,30 µg/m³ 20:45
20:503,9 °C 91 % - 0,0 mm 0,0 mm nein 1,6 km/h 4,8 km/h 0,0 mm/h SO 0,000 klux 0,0 W/qm 0,0 nein 11,40 µg/m³ 9,10 µg/m³ 20:50
20:553,9 °C 91 % - 0,0 mm 0,0 mm nein 1,6 km/h 6,4 km/h 0,0 mm/h OSO 0,000 klux 0,0 W/qm 0,0 nein 7,95 µg/m³ 6,64 µg/m³ 20:55
21:003,9 °C 91 % - 0,0 mm 0,0 mm nein 1,6 km/h 4,8 km/h 0,0 mm/h OSO 0,000 klux 0,0 W/qm 0,0 nein 9,61 µg/m³ 6,87 µg/m³ 21:00
21:053,9 °C 91 % - 0,0 mm 0,0 mm nein 1,6 km/h 11,3 km/h 0,0 mm/h OSO 0,000 klux 0,0 W/qm 0,0 nein 8,52 µg/m³ 6,78 µg/m³ 21:05
21:103,9 °C 91 % - 0,0 mm 0,0 mm nein 3,2 km/h 9,7 km/h 0,0 mm/h SSO 0,000 klux 0,0 W/qm 0,0 nein 7,58 µg/m³ 6,17 µg/m³ 21:10
21:153,9 °C 91 % - 0,0 mm 0,0 mm nein 4,8 km/h 14,5 km/h 0,0 mm/h SSO 0,000 klux 0,0 W/qm 0,0 nein 7,23 µg/m³ 5,21 µg/m³ 21:15
21:203,3 °C 91 % - 0,2 mm 0,0 mm ja 3,2 km/h 14,5 km/h 0,0 mm/h OSO 0,000 klux 0,0 W/qm 0,0 nein 6,87 µg/m³ 4,91 µg/m³ 21:20
21:253,3 °C 91 % - 0,0 mm 0,0 mm nein 3,2 km/h 6,4 km/h 0,0 mm/h SO 0,000 klux 0,0 W/qm 0,0 nein 5,89 µg/m³ 4,33 µg/m³ 21:25
21:303,3 °C 91 % - 0,0 mm 0,0 mm nein 1,6 km/h 3,2 km/h 0,0 mm/h SO 0,000 klux 0,0 W/qm 0,0 nein 6,85 µg/m³ 4,97 µg/m³ 21:30
21:353,3 °C 91 % - 0,0 mm 0,0 mm nein 1,6 km/h 4,8 km/h 0,0 mm/h SO 0,000 klux 0,0 W/qm 0,0 nein 6,80 µg/m³ 5,58 µg/m³ 21:35
21:403,3 °C 92 % - 0,0 mm 0,0 mm nein 0,0 km/h 3,2 km/h 0,0 mm/h SO 0,000 klux 0,0 W/qm 0,0 nein 5,93 µg/m³ 4,57 µg/m³ 21:40
21:453,3 °C 92 % - 0,0 mm 0,0 mm nein 1,6 km/h 3,2 km/h 0,0 mm/h SO 0,000 klux 0,0 W/qm 0,0 nein 6,11 µg/m³ 4,53 µg/m³ 21:45
21:503,3 °C 92 % - 0,0 mm 0,0 mm nein 0,0 km/h 3,2 km/h 0,0 mm/h SO 0,000 klux 0,0 W/qm 0,0 nein 6,10 µg/m³ 4,35 µg/m³ 21:50
21:553,3 °C 92 % - 0,0 mm 0,0 mm nein 0,0 km/h 3,2 km/h 0,0 mm/h SO 0,000 klux 0,0 W/qm 0,0 nein 6,26 µg/m³ 4,49 µg/m³ 21:55
UhrzeitTemperaturFeuchteLuftdruckNiederschlagEvapotranspirationNiederschlag?WindWindböenRegenrateWindrichtungHelligkeitSolarstrahlungUV-IndexSonne?Feinstaub 10µmFeinstaub 2,5µmUhrzeit
22:003,3 °C 92 % - 0,0 mm 0,0 mm nein 1,6 km/h 4,8 km/h 0,0 mm/h SO 0,000 klux 0,0 W/qm 0,0 nein 6,22 µg/m³ 4,80 µg/m³ 22:00
22:053,3 °C 92 % - 0,0 mm 0,0 mm nein 1,6 km/h 8,0 km/h 0,0 mm/h SSO 0,000 klux 0,0 W/qm 0,0 nein 6,15 µg/m³ 4,71 µg/m³ 22:05
22:103,3 °C 92 % - 0,0 mm 0,0 mm nein 3,2 km/h 12,9 km/h 0,0 mm/h OSO 0,000 klux 0,0 W/qm 0,0 nein 6,56 µg/m³ 4,83 µg/m³ 22:10
22:153,3 °C 92 % - 0,0 mm 0,0 mm nein 1,6 km/h 4,8 km/h 0,0 mm/h OSO 0,000 klux 0,0 W/qm 0,0 nein 6,60 µg/m³ 4,88 µg/m³ 22:15
22:203,3 °C 92 % - 0,0 mm 0,0 mm nein 1,6 km/h 4,8 km/h 0,0 mm/h OSO 0,000 klux 0,0 W/qm 0,0 nein 6,62 µg/m³ 4,82 µg/m³ 22:20
22:253,3 °C 92 % - 0,0 mm 0,0 mm nein 1,6 km/h 6,4 km/h 0,0 mm/h OSO 0,000 klux 0,0 W/qm 0,0 nein 11,63 µg/m³ 8,83 µg/m³ 22:25
22:303,3 °C 92 % - 0,0 mm 0,0 mm nein 1,6 km/h 4,8 km/h 0,0 mm/h OSO 0,000 klux 0,0 W/qm 0,0 nein 11,98 µg/m³ 9,16 µg/m³ 22:30
22:353,3 °C 92 % - 0,0 mm 0,0 mm nein 1,6 km/h 4,8 km/h 0,0 mm/h OSO 0,000 klux 0,0 W/qm 0,0 nein 10,49 µg/m³ 8,15 µg/m³ 22:35
22:403,3 °C 92 % - 0,0 mm 0,0 mm nein 1,6 km/h 4,8 km/h 0,0 mm/h OSO 0,000 klux 0,0 W/qm 0,0 nein 7,30 µg/m³ 5,59 µg/m³ 22:40
22:453,3 °C 92 % - 0,0 mm 0,0 mm nein 1,6 km/h 3,2 km/h 0,0 mm/h OSO 0,000 klux 0,0 W/qm 0,0 nein 8,50 µg/m³ 5,88 µg/m³ 22:45
22:503,3 °C 92 % - 0,0 mm 0,0 mm nein 0,0 km/h 1,6 km/h 0,0 mm/h OSO 0,000 klux 0,0 W/qm 0,0 nein 6,04 µg/m³ 4,77 µg/m³ 22:50
22:553,3 °C 92 % - 0,0 mm 0,0 mm nein 0,0 km/h 0,0 km/h 0,0 mm/h N 0,000 klux 0,0 W/qm 0,0 nein 6,99 µg/m³ 5,17 µg/m³ 22:55
23:003,3 °C 92 % - 0,0 mm 0,0 mm nein 0,0 km/h 0,0 km/h 0,0 mm/h N 0,000 klux 0,0 W/qm 0,0 nein 6,47 µg/m³ 4,97 µg/m³ 23:00
23:053,3 °C 92 % - 0,0 mm 0,0 mm nein 0,0 km/h 0,0 km/h 0,0 mm/h N 0,000 klux 0,0 W/qm 0,0 nein 7,00 µg/m³ 4,70 µg/m³ 23:05
23:103,3 °C 92 % - 0,0 mm 0,0 mm nein 0,0 km/h 1,6 km/h 0,0 mm/h OSO 0,000 klux 0,0 W/qm 0,0 nein 7,17 µg/m³ 5,12 µg/m³ 23:10
23:153,3 °C 92 % - 0,0 mm 0,0 mm nein 0,0 km/h 0,0 km/h 0,0 mm/h N 0,000 klux 0,0 W/qm 0,0 nein 6,29 µg/m³ 4,66 µg/m³ 23:15
23:203,3 °C 93 % - 0,0 mm 0,0 mm nein 0,0 km/h 0,0 km/h 0,0 mm/h N 0,000 klux 0,0 W/qm 0,0 nein 6,08 µg/m³ 4,84 µg/m³ 23:20
23:253,3 °C 93 % - 0,0 mm 0,0 mm nein 0,0 km/h 1,6 km/h 0,0 mm/h OSO 0,000 klux 0,0 W/qm 0,0 nein 6,12 µg/m³ 4,52 µg/m³ 23:25
23:303,3 °C 93 % - 0,0 mm 0,0 mm nein 0,0 km/h 1,6 km/h 0,0 mm/h OSO 0,000 klux 0,0 W/qm 0,0 nein 5,71 µg/m³ 4,29 µg/m³ 23:30
23:353,3 °C 93 % - 0,0 mm 0,0 mm nein 1,6 km/h 6,4 km/h 0,0 mm/h OSO 0,000 klux 0,0 W/qm 0,0 nein 7,78 µg/m³ 4,79 µg/m³ 23:35
23:403,3 °C 93 % - 0,0 mm 0,0 mm nein 0,0 km/h 3,2 km/h 0,0 mm/h OSO 0,000 klux 0,0 W/qm 0,0 nein 6,21 µg/m³ 4,69 µg/m³ 23:40
23:453,3 °C 93 % - 0,0 mm 0,0 mm nein 0,0 km/h 3,2 km/h 0,0 mm/h OSO 0,000 klux 0,0 W/qm 0,0 nein 12,64 µg/m³ 9,42 µg/m³ 23:45
23:503,3 °C 93 % - 0,0 mm 0,0 mm nein 1,6 km/h 3,2 km/h 0,0 mm/h OSO 0,000 klux 0,0 W/qm 0,0 nein 10,14 µg/m³ 6,93 µg/m³ 23:50
23:553,3 °C 93 % - 0,0 mm 0,0 mm nein 0,0 km/h 1,6 km/h 0,0 mm/h OSO 0,000 klux 0,0 W/qm 0,0 nein 8,29 µg/m³ 5,78 µg/m³ 23:55
Gesamt: 3,0 °C 89 % nan hPa 0,2 mm 0,4 mm ja 2,1 km/h 5,7 km/h 0,0 mm/h 0 0,000 klux 33,2 W/qm 0,0 nein 9,17 µg/m³ 6,55 µg/m³

Insgesamt 288 Zeilen mal 16 Spalten = 4608 Werte werden angezeigt.

www.wetter-rosstal.de   •   www.wetter-franken.de   •   www.lightningmaps.org   •   Start   •   Kontakt / Datenschutz   •   PC-Kümmerer